Погода в Архангельском

Россия / Удмуртская Республика     57°47′22″N   52°40′52″E
темп.,
°C
ветер,
м/с
пор.,
м/с
влажн.,
%
обл.,
%
осадки,
мм/ч
давл.,
гПа
погр.,
м
19 сентября, вс
вс1901:000сз5128899 0.0 1019489
04:00−1сз51293100 0.0 1020396
07:00−1сз5119569 0.0 1021370
10:00+4ссз586588 0.0 10211218
13:00+5ссз5757100 0.0 10221346
16:00+5ссз5757100 0.0 10231419
19:00+3ссз486999 0.0 1024595
22:00+1ссз388523 0.0 1025225
20 сентября, пн
пн2001:00−2ссз369321 0.0 1026110
04:00+1сз2578100 0.0 1027145
07:00+1с378413 0.0 1028263
10:00+5с346548 0.0 1028798
13:00+7ссв345457 0.0 10281235
16:00+7св445595 0.0 10291188
19:00+2всв367976 0.0 1030128
22:00+3в3776100 0.0 1031438
21 сентября, вт
вт2101:00+3в2678100 0.0 1031249
04:00+3всв2678100 0.0 1030204
07:00+4в3570100 0.0 1030359
10:00+5в456060 0.0 10291059
13:00+9в345042 0.0 10281163
16:00+9в335170 0.0 10261167
19:00+4в347478 0.0 102646
22:00+2в358414 0.0 102692
22 сентября, ср
ср2201:00+1в35887 0.0 102686
04:000в38924 0.0 1025135
07:000в38920 0.0 1026162
10:00+7в576123 0.0 1025527
13:00+10в5649100 0.0 1024851
16:00+11в4651100 0.0 1024831
19:00+6в3973100 0.0 1025164
22:00+5в41081100 0.0 1025199
23 сентября, чт
чт2301:00+4вюв4108052 0.0 1025204
04:00+5вюв4107249 0.0 1025245
07:00+5вюв4107585 0.0 1026232
10:00+10юв595790 0.0 1026390
13:00+13юв5952100 0.0 1026676
16:00+12юв41160100 0.0 1025545
19:00+11ююв5126282 0.0 1026460
22:00+9ююв3868100 0.0 1026202